Location: Vancouver
(49.2827°N, 123.1207°W)
Time: 09:25:08
(UTC-08:00)

ISS - Visible Passes

Search period start: 23 January 2020 00:00
Search period end: 02 February 2020 00:00
Orbit: 415 x 422 km, 51.6° (Epoch: 23 January)

Date Brightness Start Highest point End Pass type
(mag) Time Alt. Az. Time Alt. Az. Time Alt. Az.
23 Jan -2.3 17:55:25 10° SSW 17:58:14 25° SE 18:00:15 15° E visible
23 Jan -1.8 19:31:23 10° WSW 19:33:13 30° WSW 19:33:13 30° WSW visible
24 Jan -3.8 18:43:42 10° WSW 18:47:04 73° SSE 18:47:34 59° E visible
25 Jan -3.3 17:56:06 10° SW 17:59:25 52° SSE 18:01:52 16° E visible
25 Jan -1.9 19:32:52 10° W 19:34:50 31° WNW 19:34:50 31° WNW visible
26 Jan -3.7 18:45:05 10° W 18:48:27 70° NNW 18:49:06 52° NE visible
27 Jan -3.8 17:57:19 10° WSW 18:00:42 86° NNW 18:03:20 16° ENE visible
27 Jan -1.9 19:34:21 10° WNW 19:36:17 30° WNW 19:36:17 30° WNW visible
28 Jan -3.4 18:46:33 10° W 18:49:53 55° N 18:50:30 46° NE visible
29 Jan -3.5 17:58:43 10° W 18:02:05 60° N 18:04:43 15° ENE visible
29 Jan -2.0 19:35:44 10° WNW 19:37:40 31° WNW 19:37:40 31° WNW visible
30 Jan -3.5 18:47:56 10° WNW 18:51:17 58° N 18:51:54 48° NE visible
30 Jan -0.1 20:24:48 10° WNW 20:24:51 10° WNW 20:24:51 10° WNW visible
31 Jan -3.4 18:00:07 10° WNW 18:03:27 55° N 18:06:09 15° ENE visible
31 Jan -2.1 19:37:01 10° WNW 19:39:06 35° WNW 19:39:06 35° WNW visible
01 Feb -3.8 18:49:13 10° WNW 18:52:37 79° NNE 18:53:23 50° E visible
01 Feb -0.2 20:26:14 10° W 20:26:20 11° W 20:26:20 11° W visible
